Kerry Airport, Ireland

5:14 PM IST on July 23, 2017 (GMT +0100)
Farranfore

Weather History for EIKY - August, 2014

Change the Weather History Date:

Sunday, August 17, 2014

  Actual Average (EINN) Record (EINN)
Temperature  
Mean Temperature 60 °F -  
Max Temperature 64 °F 66 °F 71 °F (1997)
Min Temperature 53 °F 54 °F 44 °F (2011)
Degree Days  
Heating Degree Days 6    
Growing Degree Days 10 (Base 50)    
Moisture  
Dew Point 50 °F    
Average Humidity 74    
Maximum Humidity 88    
Minimum Humidity 59    
Precipitation  
Precipitation 0.00 in - - ()
Sea Level Pressure  
Sea Level Pressure 29.98 in    
Wind  
Wind Speed 7 mph ()    
Max Wind Speed 12 mph    
Max Gust Speed 22 mph    
Visibility 6.2 miles    
Events Rain    
Averages and records for this station are not official NWS values.
T = Trace of Precipitation, MM = Missing Value Source: Averaged Metar Reports

Daily Weather History Graph

Daily Weather History Graph

Search for Another Location

Airport or City:

Trip Planner

Search our weather history database for the weather conditions in past years. The results will help you decide how hot, cold, wet, or windy it might be!

Date:

Astronomy

Aug. 17, 2014 Rise Set
Actual Time 6:24 AM IST 8:58 PM IST
Civil Twilight 5:46 AM IST 9:36 PM IST
Nautical Twilight 4:57 AM IST 10:24 PM IST
Astronomical Twilight 3:59 AM IST 11:22 PM IST
Moon No Moon Rise 2:56 PM IST (8/17)
Length of Visible Light 15h 49m
Length of Day
14h 33m
Waning Gibbous, 51% of the Moon is Illuminated
Aug 17
Waning Gibbous
Aug 17
Last Quarter
Aug 25
New
Sep 2
First Quarter
Sep 9
Full

Hourly Weather History & Observations

Time (IST) Temp. Dew Point Humidity Pressure Visibility Wind Dir Wind Speed Gust Speed Precip Events Conditions
8:30 AM 55.4 °F 51.8 °F 88% 29.98 in 6.2 mi WSW 6.9 mph - N/A   Mostly Cloudy
9:00 AM 57.2 °F 51.8 °F 82% 29.98 in 6.2 mi West 6.9 mph - N/A   Mostly Cloudy
9:30 AM 57.2 °F 51.8 °F 82% 29.98 in 6.2 mi NW 8.1 mph - N/A Rain Light Rain
10:00 AM 57.2 °F 50.0 °F 77% 29.98 in 6.2 mi NW 6.9 mph - N/A   Mostly Cloudy
11:30 AM 59.0 °F 51.8 °F 77% 29.98 in 6.2 mi WNW 9.2 mph - N/A   Mostly Cloudy
1:00 PM 59.0 °F 53.6 °F 82% 29.98 in 6.2 mi WNW 6.9 mph - N/A   Mostly Cloudy
1:30 PM 59.0 °F 51.8 °F 77% 29.98 in 6.2 mi WNW 5.8 mph - N/A Rain Light Rain
2:00 PM 60.8 °F 48.2 °F 63% 29.98 in 6.2 mi NW 10.4 mph - N/A   Mostly Cloudy
3:00 PM 64.4 °F 51.8 °F 64% 29.98 in 6.2 mi NW 8.1 mph - N/A   Scattered Clouds
3:30 PM 60.8 °F 48.2 °F 63% 29.98 in 6.2 mi NNW 11.5 mph - N/A   Mostly Cloudy
4:30 PM 62.6 °F 48.2 °F 59% 29.98 in 6.2 mi NW 10.4 mph - N/A   Mostly Cloudy
5:00 PM 62.6 °F 50.0 °F 63% 29.98 in 6.2 mi NW 11.5 mph - N/A   Mostly Cloudy
5:30 PM 60.8 °F 50.0 °F 68% 29.98 in 6.2 mi NNW 11.5 mph - N/A   Scattered Clouds
6:00 PM 57.2 °F 50.0 °F 77% 29.98 in 6.2 mi NW 6.9 mph - N/A   Mostly Cloudy
6:30 PM 59.0 °F 48.2 °F 67% 29.95 in 6.2 mi NNW 10.4 mph 21.9 mph N/A   Mostly Cloudy
7:00 PM 59.0 °F 50.0 °F 72% 29.98 in 6.2 mi NNW 10.4 mph - N/A   Mostly Cloudy
7:30 PM 57.2 °F 51.8 °F 82% 29.98 in 6.2 mi WNW 4.6 mph - N/A   Partly Cloudy
8:00 PM 57.2 °F 48.2 °F 72% 29.98 in 6.2 mi WNW 3.5 mph - N/A   Scattered Clouds
8:30 PM 55.4 °F 48.2 °F 77% 29.98 in 6.2 mi WNW 3.5 mph - N/A   Scattered Clouds
9:30 PM 53.6 °F 48.2 °F 82% 29.98 in 6.2 mi West 5.8 mph - N/A   Scattered Clouds